Regional Weather Roundup
Issued by NWS

Home | Current Version | Previous Version | Text Only | Print | Product List | Glossary Off
Versions: 1 2 3 4 5 6 7 8 9 10 11 12 13 14 15 16 17 18 19 20 21 22 23 24 25 26 27 28 29 30 31 32 33 34 35 36 37 38 39 40 41 42 43 44 45 46 47 48 49 50

000
ASUS43 KLMK 212010
RWRKY
KENTUCKY REGIONAL WEATHER ROUNDUP
NATIONAL WEATHER SERVICE LOUISVILLE KY
400 PM EDT SAT APR 21 2018

NOTE "FAIR" INDICATES FEW OR NO CLOUDS BELOW 12,000 FEET
WITH NO SIGNIFICANT WEATHER AND/OR OBSTRUCTIONS TO VISIBILITY.

KYZ001>023-026-027-061>063-070>075-212100-
WESTERN AND SOUTH CENTRAL KENTUCKY

CITY           SKY/WX    TMP DP  RH WIND       PRES   REMARKS
PADUCAH        FAIR      73  38  27 E8G18     30.17F
HENDERSON      FAIR      69  37  30 NE9       30.24F
OWENSBORO      FAIR      71  30  21 VRB6      30.24F
HOPKINSVILLE   FAIR      71  36  26 NE12      30.20F
BOWLING GREEN  FAIR      70  35  27 VRB5      30.25F
GLASGOW        FAIR      72  36  26 CALM      30.25F
$$

KYZ024-025-028>034-038-045-046-053-212100-
NORTH CENTRAL KENTUCKY

CITY           SKY/WX    TMP DP  RH WIND       PRES   REMARKS
LOUISVILLE/SDF PTSUNNY   70  31  23 N6        30.27F
LOUISVILLE/LOU FAIR      68  33  27 E6        30.29F
FORT KNOX      FAIR      69  26  20 CALM      30.27F
$$

KYZ035>037-039>044-047>052-055>060-089>105-212100-
NORTHEAST KENTUCKY

CITY           SKY/WX    TMP DP  RH WIND       PRES   REMARKS
LEXINGTON      FAIR      66  33  29 N6        30.30F
COVINGTON      CLOUDY    61  20  20 E5        30.33F
FRANKFORT      FAIR      66  29  24 VRB7      30.29F
$$

KYZ054-064>069-076>088-106>120-212100-
SOUTHEAST KENTUCKY

CITY           SKY/WX    TMP DP  RH WIND       PRES   REMARKS
JACKSON        FAIR      70  26  19 VRB3      30.28F
LONDON         FAIR      70  28  21 VRB3      30.27F
SOMERSET       FAIR      70  32  24 MISG      30.28F
MIDDLESBORO    FAIR      72  30  20 CALM      30.26F
MONTICELLO     FAIR      70  38  31 N17       30.28F
$$





USA.gov is the U.S. government's official web portal to all federal, state and local government web resources and services.